sat.trackr.live / text

‹ back to catalog

STARLINK-5064

NORAD 55428 · 2023-014AP

PAYLOAD ACTIVE UNKNOWN

§ Identity

Operator
Country
US
Launch date
2023-01-31
Launch site
AFWTR
Launch vehicle
Mass (kg)
RCS (m²)

Purposes: comms

External: N2YO · Heavens-Above · Gunter

§ Orbital elements

Epoch: 2026-05-25T00:53:13.014816Z

Period
96.11 min
Inclination
69.9994°
Eccentricity
0.0003508
Mean motion
14.98328740 rev/d
Perigee alt
569.6 km
Apogee alt
574.5 km
Semi-major
6,950.2 km
B*
6.5831e-5
RAAN
252.1403°
Arg perigee
265.9977°
Mean anomaly
94.0781°
Rev number
18,299

§ Raw data

STARLINK-50641 55428U 23014AP  26145.03695619  .00000692  00000+0  65831-4 0  99942 55428  69.9994 252.1403 0003508 265.9977  94.0781 14.98328740182994

JSON: /api/v1/satellites/55428 · /tle

For live sub-satellite position, see the globe view (requires WebGL).

§ Visibility from observer

Set your observer location to see the next 7 days of passes ≥ 10°. The values pass through the URL so the page stays shareable.

No JS? Fill the form by hand. The geolocation button needs JavaScript.